This demonstration page uses our WeatherBlox Daily Observations layout. Learn more.

Left ArrowRight Arrow

Hourly Observations for May 25, 2018

Temp ( °F °C ) Dew Point ( °F °C ) Humidity (%) Winds ( mph kmh ) Pressure ( in mb ) Visibility ( mi km ) Precip ( " mm )
12:53 am 00:53 Mostly Clear 73 22.8 63 17.2 71 71 SSE 10 17 29.86 1011 10 16 0.00 0.00
1:53 am 01:53 Mostly Cloudy 69 20.6 65 18.3 87 87 SSE 3 6 29.84 1011 10 16 0.04 1.02
2:53 am 02:53 Clear 68 20 64 17.8 87 87 W 5 7 29.83 1010 10 16 0.00 0.00
3:53 am 03:53 Clear 68 20 62 16.7 81 81 SW 5 7 29.86 1011 10 16 0.00 0.00
4:53 am 04:53 Clear 64 17.8 61 16.1 90 90 SW 3 6 29.85 1011 10 16 0.00 0.00
5:53 am 05:53 Clear 62 16.7 56 13.3 80 80 W 7 11 29.86 1011 10 16 0.00 0.00
6:53 am 06:53 Sunny 63 17.2 55 12.8 76 76 WSW 7 11 29.87 1012 10 16 0.00 0.00
7:53 am 07:53 Sunny 68 20 55 12.8 63 63 W 14 22 29.86 1011 10 16 0.00 0.00
8:53 am 08:53 Sunny 71 21.7 55 12.8 57 57 W 9 15 29.87 1012 10 16 0.00 0.00
9:53 am 09:53 Sunny 74 23.3 55 12.8 52 52 SW 8 13 29.88 1012 10 16 0.00 0.00
10:53 am 10:53 Sunny 80 26.7 56 13.3 44 44 SW 10 17 29.86 1011 10 16 0.00 0.00
11:53 am 11:53 Sunny 84 28.9 55 12.8 37 37 WSW 9 15 29.85 1011 10 16 0.00 0.00
12:53 pm 12:53 Sunny 87 30.6 56 13.3 35 35 W 12 19 29.83 1010 10 16 0.00 0.00
1:53 pm 13:53 Sunny 89 31.7 57 13.9 34 34 SW 8 13 29.81 1010 10 16 0.00 0.00
2:53 pm 14:53 Sunny 90 32.2 54 12.2 29 29 VRB 5 7 29.80 1009 10 16 0.00 0.00
3:53 pm 15:53 Sunny 91 32.8 57 13.9 32 32 VRB 5 7 29.77 1008 10 16 0.00 0.00
4:53 pm 16:53 Partly Cloudy 93 33.9 58 14.4 31 31 SW 7 11 29.75 1007 10 16 0.00 0.00
5:53 pm 17:53 Sunny 93 33.9 61 16.1 34 34 VRB 3 6 29.74 1007 10 16 0.00 0.00
6:53 pm 18:53 Mostly Sunny 90 32.2 63 17.2 41 41 SSW 9 15 29.73 1007 10 16 0.00 0.00
7:53 pm 19:53 Sunny 87 30.6 62 16.7 43 43 SSW 13 20 29.73 1007 10 16 0.00 0.00
8:53 pm 20:53 Clear 84 28.9 58 14.4 41 41 SW 6 9 29.74 1007 10 16 0.00 0.00
9:53 pm 21:53 Clear 79 26.1 61 16.1 54 54 WSW 3 6 29.75 1007 10 16 0.00 0.00
10:53 pm 22:53 Clear 79 26.1 60 15.6 52 52 SSW 9 15 29.76 1008 10 16 0.00 0.00
11:53 pm 23:53 Clear 79 26.1 63 17.2 58 58 SW 8 13 29.75 1007 10 16 0.00 0.00

Powered by AerisWeather